Home   Weather   Norderstedt   Past weeks

Flag for Germany Past Weather in Norderstedt, Schleswig-Holstein, Germany — Yesterday and Last 2 Weeks

Now
43 °F

Light rain. Partly cloudy.


Feels Like: 39 °F
Forecast: 35 / 45 °F
Wind: 6 mph from Northwest

Location: Hamburg-Fuhlsbuettel

Current Time: Apr 24, 2017 at 9:22:38 pm

Latest Report: Apr 24, 2017 at 8:50 pm


Visibility: N/A

Pressure: 29.74 "Hg

Humidity: 87%

Dew Point: 39 °F

Location of NorderstedtLocation

Past Weather in Norderstedt — Graph

°F

Norderstedt Temperature Yesterday

Maximum temperature yesterday: 48 °F (at 2:20 pm)
Minimum temperature yesterday: 39 °F (at 6:20 am)
Average temperature yesterday: 43 °F

High & Low Weather Summary for the Past Weeks

 TemperatureHumidityPressure
High64 °F (Apr 9, 7:20 pm)100% (Apr 14, 6:50 am)30.63 "Hg (Apr 14, 6:50 am)
Low25 °F (Apr 19, 5:50 am)40% (Apr 9, 7:20 pm)29.71 "Hg (Apr 15, 7:20 am)
Average44 °F78%30.08 "Hg
* Reported Apr 9 7:20 pm — Apr 24 7:50 pm, Norderstedt, Weather by CustomWeather, © 2017

Note: Actual official high and low records may vary slightly from our data, if they occured in-between our weather recording intervals... More about our weather records

Advertising

Norderstedt Weather History for the Previous 24 Hours

Scroll right to see more
 ConditionsComfort  
Time TempWeatherWind HumidityBarometerVisibility
7:50 pm
Mon, Apr 24
43 °FLight rain. Broken clouds.10 mph87%29.74 "HgN/A
7:20 pm45 °FSprinkles. Broken clouds.8 mph87%29.74 "HgN/A
6:50 pm46 °FSprinkles. Partly sunny.14 mph87%29.74 "HgN/A
6:20 pm46 °FPartly sunny.10 mph87%29.77 "HgN/A
5:50 pm45 °FSprinkles. Partly sunny.13 mph93%29.77 "HgN/A
5:20 pm48 °FSprinkles. Partly sunny.14 mph87%29.74 "HgN/A
4:50 pm50 °FSprinkles. Partly sunny.13 mph82%29.77 "HgN/A
4:20 pm50 °FBroken clouds.12 mph88%29.77 "HgN/A
3:50 pm52 °FSprinkles. Partly sunny.17 mph72%29.77 "HgN/A
3:20 pm52 °FPartly sunny.16 mph67%29.77 "HgN/A
2:50 pm52 °FPartly sunny.20 mph67%29.77 "HgN/A
2:20 pm52 °FPartly sunny.15 mph67%29.80 "HgN/A
1:50 pm52 °FPartly sunny.17 mph67%29.80 "HgN/A
1:20 pm50 °FSprinkles. Partly sunny.23 mph71%29.80 "HgN/A
12:50 pm50 °FBroken clouds.20 mph67%29.83 "HgN/A
12:20 pm50 °FPartly sunny.17 mph67%29.83 "HgN/A
11:50 am50 °FBroken clouds.22 mph62%29.83 "HgN/A
11:20 am48 °FBroken clouds.17 mph66%29.86 "HgN/A
10:50 am46 °FBroken clouds.22 mph71%29.86 "HgN/A
10:20 am46 °FBroken clouds.18 mph66%29.86 "HgN/A
9:50 am45 °FBroken clouds.20 mph71%29.89 "HgN/A
9:20 am43 °FBroken clouds.17 mph76%29.89 "HgN/A
8:50 am43 °FPartly sunny.20 mph71%29.89 "HgN/A
8:20 am43 °FPartly sunny.18 mph71%29.92 "HgN/A
7:50 am41 °FPartly sunny.17 mph76%29.92 "HgN/A
7:20 am41 °FPartly sunny.16 mph76%29.95 "HgN/A
6:50 am41 °FPartly sunny.14 mph76%29.95 "HgN/A
6:20 am39 °FPartly sunny.13 mph81%29.98 "HgN/A
5:50 am39 °FPassing clouds.14 mph81%29.98 "HgN/A
4:50 am37 °FPassing clouds.10 mph87%30.04 "HgN/A
4:20 am37 °FClear.9 mph93%30.04 "Hg10 mi
3:50 am37 °FClear.9 mph93%30.07 "Hg10 mi
3:20 am37 °FClear.8 mph87%30.07 "Hg10 mi
2:50 am39 °FPassing clouds.8 mph87%30.07 "HgN/A
2:20 am39 °FClear.9 mph87%30.09 "Hg10 mi
1:50 am37 °FPartly cloudy.7 mph93%30.09 "HgN/A
1:20 am37 °FPassing clouds.6 mph87%30.09 "HgN/A
12:50 am37 °FPassing clouds.7 mph93%30.12 "HgN/A
12:20 am39 °FPassing clouds.7 mph81%30.12 "HgN/A
11:50 pm
Sun, Apr 23
39 °FPassing clouds.7 mph81%30.12 "HgN/A
10:50 pm39 °FClear.6 mph81%30.15 "Hg10 mi
10:20 pm41 °FPassing clouds.8 mph76%30.15 "HgN/A
9:50 pm41 °FPassing clouds.8 mph76%30.15 "HgN/A
Weather by CustomWeather, © 2017

See weather overviewHow to use our weather pages